Find Starlink 30292

NORAD ID: 57844 Int'l Des: 2023-141 Owner: SPXS Country: US Constellation: starlink operational
LEOCIRCULAR

当前视图

正在加载3D地球...

About Starlink 30292

Starlink 30292 (NORAD 57844) is a starlink constellation satellite (v2 mini) launched Sep 12, 2023 by SPXS of US. It operates in LEO, CIRCULAR orbit with a mass of 730.00 kg.

关于 Starlink 30292

正在加载描述...

即将过境

Passes for default location (London). Set your location on the main map for personalized predictions.

高度历史

Loading altitude history...

两行轨道根数

1 57844U 23141E 26170.25531387 -.00000923 00000-0 -19039-4 0 9991
2 57844 53.1587 171.9780 0001277 87.1771 272.9376 15.30188996155883
Epoch: Jun 19, 2026 • Age: 12 hours

当前状态

高度 494.6 km
速度 7.62 km/s
星下点 -53.21°S, 107.1°W
发射日期 Sep 12, 2023
运行时间 2.7 years
类型 internet

技术详情

分类 Payload
质量 730.00 kg
干质量 700.00 kg
总质量 730.00 kg
长度 0.30 m
直径 4.10 m
跨度 29.00 m
形状 Box + pan
制造商 SPXS
平台类型 Starlink V2M
阶段状态 In Orbit
所有者/国家 SPXS/US

Most Searched